This is the latest recevied weather packets stored in our database for station/object HUGOCO. If no packets are shown the sender has not sent any weather packets the latest 1 day(s).
| Time | Temp. | Humidity | Pressure | Rain* | Wind** | Luminosity | Snow |
|---|---|---|---|---|---|---|---|
| 1777993259 | 2.78° C | 83% | 1012.4 hPa | 0 mm | 4.47 m/s, 359° | - | - |
| 1777992959 | 3.33° C | 84% | 1012.3 hPa | 0 mm | 4.92 m/s, 359° | - | - |
| 1777992659 | 2.78° C | 83% | 1012.3 hPa | 0 mm | 4.92 m/s, 359° | - | - |
| 1777992359 | 2.78° C | 82% | 1012.3 hPa | 0 mm | 4.92 m/s, 359° | - | - |
| 1777992059 | 3.33° C | 82% | 1012.3 hPa | 0 mm | 4.47 m/s, 359° | - | - |
| 1777991759 | 3.33° C | 81% | 1012.2 hPa | 0 mm | 4.92 m/s, 359° | - | - |
| 1777991459 | 2.78° C | 82% | 1012.2 hPa | 0 mm | 4.92 m/s, 359° | - | - |
| 1777991159 | 2.78° C | 82% | 1012.1 hPa | 0 mm | 4.92 m/s, 359° | - | - |
| 1777990859 | 2.78° C | 81% | 1012 hPa | 0 mm | 4.47 m/s, 359° | - | - |
| 1777990559 | 3.33° C | 82% | 1012.1 hPa | 0 mm | 4.47 m/s, 359° | - | - |
| 1777990259 | 2.78° C | 82% | 1012 hPa | 0 mm | 4.92 m/s, 359° | - | - |
| 1777989959 | 2.78° C | 82% | 1012 hPa | 0 mm | 4.92 m/s, 359° | - | - |
| 1777989659 | 2.78° C | 82% | 1011.9 hPa | 0 mm | 4.92 m/s, 359° | - | - |
| 1777989359 | 2.78° C | 82% | 1011.9 hPa | 0 mm | 4.92 m/s, 359° | - | - |
| 1777989059 | 2.78° C | 83% | 1011.7 hPa | 0 mm | 5.36 m/s, 359° | - | - |
| 1777988759 | 2.78° C | 83% | 1011.7 hPa | 0 mm | 4.92 m/s, 359° | - | - |
| 1777988459 | 3.33° C | 83% | 1011.6 hPa | 0 mm | 4.92 m/s, 359° | - | - |
| 1777988159 | 2.78° C | 83% | 1011.5 hPa | 0 mm | 5.36 m/s, 359° | - | - |
| 1777987859 | 3.33° C | 82% | 1011.5 hPa | 0 mm | 5.81 m/s, 359° | - | - |
| 1777987559 | 3.33° C | 82% | 1011.5 hPa | 0 mm | 5.81 m/s, 359° | - | - |
| 1777987259 | 3.33° C | 81% | 1011.4 hPa | 0 mm | 6.26 m/s, 359° | - | - |
| 1777986959 | 3.33° C | 81% | 1011.2 hPa | 0 mm | 6.26 m/s, 359° | - | - |
| 1777986659 | 3.33° C | 82% | 1011.2 hPa | 0 mm | 6.71 m/s, 359° | - | - |
| 1777986359 | 2.78° C | 81% | 1011 hPa | 0 mm | 7.15 m/s, 359° | - | - |
| 1777986059 | 3.33° C | 81% | 1010.9 hPa | 0 mm | 7.15 m/s, 359° | - | - |
* Rain latest hour (hover to see other rain measurements)
** Current wind speed in m/s (hover to see current wind gust speed)